TimeCST,TemperatureF,Dew PointF,Humidity,Sea Level PressureIn,VisibilityMPH,Wind Direction,Wind SpeedMPH,Gust SpeedMPH,PrecipitationIn,Events,Conditions,WindDirDegrees,DateUTC
12:53 AM,28.9,24.1,82,30.15,10.0,Calm,Calm,-,N/A,,Clear,0,2013-01-08 06:53:00
1:53 AM,30.0,24.1,79,30.15,10.0,Calm,Calm,-,N/A,,Clear,0,2013-01-08 07:53:00
2:53 AM,27.0,23.0,85,30.15,10.0,Calm,Calm,-,N/A,,Clear,0,2013-01-08 08:53:00
3:53 AM,28.9,25.0,85,30.14,10.0,Calm,Calm,-,N/A,,Clear,0,2013-01-08 09:53:00
4:53 AM,30.9,25.0,79,30.12,10.0,Calm,Calm,-,N/A,,Scattered Clouds,0,2013-01-08 10:53:00
5:53 AM,30.0,24.1,79,30.13,10.0,Calm,Calm,-,N/A,,Mostly Cloudy,0,2013-01-08 11:53:00
6:53 AM,30.0,24.1,79,30.14,10.0,Calm,Calm,-,N/A,,Overcast,0,2013-01-08 12:53:00
7:53 AM,28.0,24.1,85,30.16,10.0,Calm,Calm,-,N/A,,Clear,0,2013-01-08 13:53:00
8:53 AM,35.1,26.1,70,30.16,-9999.0,South,3.5,-,N/A,,Partly Cloudy,190,2013-01-08 14:53:00
9:03 AM,35.6,26.6,70,30.13,-9999.0,South,4.6,-,0.00,Snow,Light Snow,180,2013-01-08 15:03:00
9:53 AM,39.9,28.0,63,30.15,10.0,North,-9999.0,-,0.11,,Scattered Clouds,0,2013-01-08 15:53:00
10:53 AM,48.0,30.0,50,30.13,10.0,South,9.2,-,N/A,,Clear,170,2013-01-08 16:53:00
11:53 AM,52.0,32.0,47,30.09,10.0,South,9.2,-,N/A,,Clear,190,2013-01-08 17:53:00
12:53 PM,55.0,33.1,43,30.07,10.0,South,10.4,-,N/A,,Clear,180,2013-01-08 18:53:00
1:53 PM,55.9,34.0,44,30.06,10.0,South,13.8,19.6,N/A,,Mostly Cloudy,190,2013-01-08 19:53:00
2:53 PM,55.9,34.0,44,30.07,10.0,SSW,10.4,-,N/A,,Overcast,200,2013-01-08 20:53:00
3:53 PM,53.1,39.9,61,30.09,10.0,South,12.7,-,0.00,Rain,Light Rain,190,2013-01-08 21:53:00
4:53 PM,51.1,42.1,71,30.10,10.0,Calm,Calm,-,0.00,Rain,Light Rain,0,2013-01-08 22:53:00
5:53 PM,50.0,43.0,77,30.10,10.0,SSE,3.5,-,0.00,,Overcast,160,2013-01-08 23:53:00
6:53 PM,48.9,43.0,80,30.12,10.0,Calm,Calm,-,N/A,,Overcast,0,2013-01-09 00:53:00
7:53 PM,48.0,44.1,86,30.16,7.0,SSE,5.8,-,0.01,Rain,Light Rain,150,2013-01-09 01:53:00
8:18 PM,46.4,44.6,93,30.14,4.0,SE,4.6,-,0.02,Rain,Light Rain,130,2013-01-09 02:18:00
8:53 PM,46.0,44.1,93,30.17,5.0,Calm,Calm,-,0.02,Rain,Light Rain,0,2013-01-09 02:53:00
9:07 PM,46.4,44.6,93,30.15,4.0,Calm,Calm,-,0.01,Rain,Light Rain,0,2013-01-09 03:07:00
9:53 PM,46.0,44.1,93,30.18,2.5,Calm,Calm,-,0.04,Rain,Light Rain,0,2013-01-09 03:53:00
10:04 PM,46.4,44.6,93,30.16,2.5,Calm,Calm,-,0.01,Rain,Light Rain,0,2013-01-09 04:04:00
10:12 PM,46.4,44.6,93,30.16,3.0,Calm,Calm,-,0.01,Rain,Light Rain,0,2013-01-09 04:12:00
10:24 PM,46.4,44.6,93,30.16,2.5,Calm,Calm,-,0.03,Rain,Light Rain,0,2013-01-09 04:24:00
10:31 PM,46.4,44.6,93,30.17,3.0,Calm,Calm,-,0.03,Rain,Light Rain,0,2013-01-09 04:31:00
10:41 PM,46.4,44.6,93,30.17,2.0,Calm,Calm,-,0.07,Rain,Heavy Rain,0,2013-01-09 04:41:00
11:23 PM,46.4,44.6,93,30.18,3.0,SSE,4.6,-,0.10,Rain,Light Rain,150,2013-01-09 05:23:00
11:31 PM,46.4,44.6,93,30.18,2.0,SSE,3.5,-,0.17,Rain,Heavy Rain,160,2013-01-09 05:31:00
11:46 PM,46.4,44.6,93,30.20,2.5,Calm,Calm,-,0.23,Rain,Rain,0,2013-01-09 05:46:00
11:53 PM,46.0,45.0,96,30.21,2.0,Calm,Calm,-,0.26,Rain,Heavy Rain,0,2013-01-09 05:53:00